Overview Statistics Trail Chart Weather Telemetry Raw packets
 

This is the latest recevied weather packets stored in our database for station/object KE6YLF. If no packets are shown the sender has not sent any weather packets the latest 10 day(s).

<< 51 52 53 54 55 56 57 >>
Time Temp. Humidity Pressure Rain* Wind** Luminosity Snow
1788335955 29.44° C 60% 1078.1 hPa 0 mm - - -
1788335652 29.44° C 60% 1077.9 hPa 0 mm - - -
1788335347 29.44° C 60% 1077.9 hPa 0 mm - - -
1788335043 29.44° C 59% 1078.2 hPa 0 mm - - -
1788334737 29.44° C 58% 1078.1 hPa 0 mm - - -
1788334433 29.44° C 58% 1077.9 hPa 0 mm - - -
1788334129 30° C 57% 1078 hPa 0 mm - - -
1788333824 30° C 54% 1078 hPa 0 mm - - -
1788333521 30° C 54% 1078 hPa 0 mm - - -
1788333220 30° C 54% 1077.7 hPa 0 mm - - -
1788332918 30° C 53% 1077.9 hPa 0 mm - - -
1788332618 30° C 52% 1077.7 hPa 0 mm - - -
1788332316 30° C 52% 1077.8 hPa 0 mm - - -
1788332012 30° C 53% 1077.7 hPa 0 mm - - -
1788331707 30° C 53% 1077.7 hPa 0 mm - - -
1788331403 30° C 53% 1077.7 hPa 0 mm - - -
1788331099 30.56° C 54% 1077.7 hPa 0 mm - - -
1788330798 30.56° C 52% 1077.5 hPa 0 mm - - -
1788330493 30.56° C 52% 1077.4 hPa 0 mm - - -
1788330188 30.56° C 54% 1077.5 hPa 0 mm - - -
1788329887 30.56° C 56% 1077.5 hPa 0 mm - - -
1788329582 30° C 57% 1077.7 hPa 0 mm - - -
1788329279 30.56° C 58% 1077.7 hPa 0 mm - - -
1788328974 30.56° C 58% 1077.6 hPa 0 mm - - -
1788328669 30° C 60% 1077.7 hPa 0 mm - - -

* Rain latest hour (hover to see other rain measurements)
** Current wind speed in m/s (hover to see current wind gust speed)